TimeCDT,TemperatureF,Dew PointF,Humidity,Sea Level PressureIn,VisibilityMPH,Wind Direction,Wind SpeedMPH,Gust SpeedMPH,PrecipitationIn,Events,Conditions,WindDirDegrees,DateUTC
12:52 AM,-0.9,-4.0,87,30.44,-9999.0,NW,12.7,-,N/A,,Unknown,320,2013-03-25 05:52:00
1:52 AM,-0.0,-2.9,88,30.45,-9999.0,NW,11.5,-,N/A,,Unknown,310,2013-03-25 06:52:00
2:52 AM,-0.9,-4.0,87,30.46,-9999.0,NW,12.7,-,N/A,,Unknown,320,2013-03-25 07:52:00
3:52 AM,-0.9,-4.0,87,30.45,-9999.0,NW,11.5,-,N/A,,Unknown,310,2013-03-25 08:52:00
4:52 AM,-2.0,-6.0,83,30.45,-9999.0,NW,6.9,-,N/A,,Unknown,310,2013-03-25 09:52:00
5:52 AM,-2.0,-6.0,83,30.46,-9999.0,NW,10.4,-,N/A,,Unknown,310,2013-03-25 10:52:00
6:52 AM,-2.9,-7.1,82,30.47,-9999.0,NW,8.1,-,N/A,,Unknown,320,2013-03-25 11:52:00
7:52 AM,-2.9,-6.0,87,30.48,-9999.0,Calm,Calm,-,N/A,,Unknown,0,2013-03-25 12:52:00
8:52 AM,-0.0,-4.0,83,30.50,-9999.0,NW,10.4,-,N/A,,Unknown,320,2013-03-25 13:52:00
9:52 AM,1.9,-2.0,83,30.51,-9999.0,NW,9.2,-,N/A,,Unknown,320,2013-03-25 14:52:00
10:52 AM,6.1,3.0,87,30.51,-9999.0,NNW,9.2,-,N/A,,Unknown,330,2013-03-25 15:52:00
11:52 AM,9.0,6.1,88,30.51,-9999.0,NW,8.1,-,N/A,,Unknown,310,2013-03-25 16:52:00
12:52 PM,10.0,7.0,87,30.50,-9999.0,WNW,6.9,-,N/A,,Unknown,300,2013-03-25 17:52:00
1:52 PM,12.9,10.0,88,30.49,-9999.0,NW,4.6,-,N/A,,Unknown,310,2013-03-25 18:52:00
2:52 PM,17.1,12.9,84,30.48,-9999.0,NNW,6.9,-,N/A,,Unknown,330,2013-03-25 19:52:00
3:52 PM,18.0,12.9,81,30.46,-9999.0,NNW,6.9,-,N/A,,Unknown,330,2013-03-25 20:52:00
4:52 PM,19.9,14.0,78,30.45,-9999.0,North,5.8,-,N/A,,Unknown,350,2013-03-25 21:52:00
5:52 PM,19.0,12.9,77,30.44,-9999.0,NNW,4.6,-,N/A,,Unknown,340,2013-03-25 22:52:00
6:52 PM,19.0,12.0,74,30.44,-9999.0,NNE,3.5,-,N/A,,Unknown,30,2013-03-25 23:52:00
7:52 PM,10.9,8.1,88,30.44,-9999.0,East,4.6,-,N/A,,Unknown,100,2013-03-26 00:52:00
8:52 PM,10.9,8.1,88,30.42,-9999.0,Calm,Calm,-,N/A,,Unknown,0,2013-03-26 01:52:00
9:52 PM,7.0,3.9,87,30.43,-9999.0,Calm,Calm,-,N/A,,Unknown,0,2013-03-26 02:52:00
10:52 PM,6.1,3.0,87,30.43,-9999.0,East,3.5,-,N/A,,Unknown,90,2013-03-26 03:52:00
11:52 PM,3.9,-0.0,84,30.41,-9999.0,Calm,Calm,-,N/A,,Unknown,0,2013-03-26 04:52:00